Simultaneous Nadir Overpasses (SNOs) Predictions

Prediction of SNOs between AQUA and NOAA-19 Satellite Orbit:

Table of predicted SNOs for the next 14.0 days since TLE Epoch: 5/8/2015
Index Date (AQUA) Time (AQUA) Lat,Lon (AQUA) SZA (AQUA ) Date (NOAA-19) Time (NOAA-19) Lat,Lon (NOAA-19) SZA (NOAA-19 ) Distance(km) Time Diff (sec)
1 05/10/2015 13:18:08 79.84, -48.49 63.44 05/10/2015 13:18:10 79.84, -48.63 63.45 2.82 2
2 05/12/2015 18:02:24 79.88,-119.92 62.95 05/12/2015 18:01:35 79.88,-119.85 62.96 1.52 49
3 05/12/2015 18:51:47 -79.76, 48.68 117.26 05/12/2015 18:52:32 -79.75, 48.75 117.29 1.64 45
4 05/14/2015 23:36:04 -79.86, -23.14 117.64 05/14/2015 23:35:59 -79.87, -23.25 117.62 2.42 5
5 05/17/2015 04:20:20 -79.94, -94.82 118.03 05/17/2015 04:19:24 -79.93, -94.73 118.02 2.16 56
6 05/17/201
